Wind_Speed
11 10 9 10 10 11 13 12 12 12 12 11 10 9 9 9 9 10 11 11 10 10 9 9 8 7 7 7 7 8 9 9 9 9 9 9 9 9 9 9 8 7
12 11 10 10 10 12 13 13 14 13 12 12 11 10 9 9 9 10 10 11 10 10 10 9 9 8 7 7 7 8 8 9 9 8 9 9 8 9 9 9 9 8
13 12 12 12 12 13 14 16 16 14 14 13 12 11 10 10 10 10 10 10 10 10 10 9 9 8 8 8 8 8 8 8 9 8 9 8 8 8 8 8 8 8
14 13 12 12 14 14 15 17 17 16 15 15 13 13 12 11 10 10 10 10 9 10 9 9 9 8 8 8 8 8 8 8 8 8 8 8 8 8 8 8 8 8
15 14 13 13 13 14 14 14 15 17 17 16 15 15 14 12 11 11 10 10 9 9 9 9 9 8 8 8 8 8 7 7 7 7 8 8 7 7 7 7 8 8
16 14 13 13 13 13 12 11 12 17 18 16 14 14 15 14 12 11 11 10 10 9 9 9 8 8 8 7 7 7 7 7 6 6 7 7 6 6 6 6 6 7
14 14 13 12 13 14 12 10 11 15 17 15 11 11 14 15 13 12 12 11 10 10 9 9 8 8 7 7 7 7 6 6 6 6 6 6 6 5 5 5 5 5
12 13 12 12 14 14 13 11 11 13 14 13 11 10 11 13 13 13 13 12 11 10 10 9 8 8 7 7 7 7 7 6 5 5 5 5 5 4 4 4 4 4
10 11 12 12 13 14 14 12 11 11 13 13 12 11 10 11 12 13 13 13 12 11 10 10 8 8 7 6 6 6 6 6 5 5 4 4 4 4 4 4 3 3
10 10 11 12 13 13 14 14 12 11 12 12 12 12 11 11 11 12 12 12 12 11 11 10 8 7 6 6 5 5 5 6 5 5 4 3 3 3 3 3 2 2
9 10 10 12 12 11 12 15 14 12 12 12 11 11 11 11 11 11 11 11 11 10 10 9 8 7 6 5 5 5 5 5 5 4 4 3 3 3 3 3 2 2
9 9 9 10 11 10 11 13 14 13 12 12 12 12 12 12 11 11 11 11 10 10 10 10 9 7 7 6 5 5 5 5 5 4 4 4 4 4 4 4 4 4
9 9 8 9 10 9 9 11 12 12 12 12 13 13 13 12 12 12 11 10 10 10 10 10 9 8 7 7 7 7 7 6 5 5 5 5 5 6 6 6 6 6
9 9 9 10 10 8 8 9 11 12 13 12 12 13 13 13 12 12 12 11 10 10 9 9 9 8 7 8 8 8 8 7 6 6 7 7 7 7 7 8 8 8
8 9 10 11 11 9 9 10 13 15 14 13 12 12 12 11 11 11 11 11 10 9 9 9 8 8 9 9 9 8 8 7 7 7 8 8 7 7 7 7 8 8
7 7 8 10 11 10 10 12 15 15 13 13 13 12 10 10 11 11 10 10 9 9 9 9 9 10 11 11 10 9 8 7 7 7 7 7 7 7 7 7 7 7
5 5 6 8 9 10 11 13 13 13 12 12 12 11 10 11 10 10 10 10 9 9 9 8 8 10 11 10 10 11 10 8 7 7 7 7 7 7 6 6 6 6
3 4 5 5 6 7 8 10 10 10 10 10 10 10 9 9 9 9 9 8 8 8 8 7 7 9 9 8 8 9 10 9 7 7 7 6 6 6 6 5 5 5
2 3 4 4 5 5 7 7 8 8 9 9 9 9 8 7 7 8 9 9 8 8 7 6 6 7 7 6 6 6 7 7 6 5 5 5 5 5 5 4 4 4
2 2 2 3 3 4 6 7 8 8 8 8 8 8 9 8 8 9 9 8 7 6 5 4 5 6 6 6 6 6 7 7 6 4 4 4 3 3 3 3 2 2
3 2 2 2 3 4 5 7 8 8 8 9 9 9 10 9 8 8 8 8 9 9 7 7 7 8 8 7 7 6 6 6 5 4 4 3 4 4 3 3 2 1
3 2 2 3 3 5 5 6 8 8 9 9 9 9 9 8 8 9 10 11 11 11 10 9 8 7 6 6 6 6 5 5 4 5 4 4 4 4 3 3 2 1
3 1 1 3 4 5 6 6 7 8 9 9 10 10 11 12 12 12 12 12 11 10 10 9 8 6 6 5 5 5 5 4 4 5 4 4 4 4 3 4 4 3
3 2 0 2 3 4 5 6 8 8 8 9 10 11 12 13 13 12 11 11 10 10 10 9 9 8 7 6 5 5 5 5 4 4 4 4 4 4 4 3 4 4
3 3 2 2 2 2 3 5 7 9 9 10 10 11 12 12 12 12 11 11 10 10 10 10 9 9 9 8 7 7 7 5 3 4 5 4 4 5 5 4 3 3
4 4 4 4 3 2 2 4 6 8 10 12 11 11 12 12 12 12 12 12 12 12 12 10 9 9 9 8 7 7 7 6 4 4 5 5 5 6 6 6 6 4
Wind_Direction
167 156 152 148 147 143 141 138 136 134 131 131 132 129 123 116 111 106 101 96 91 87 84 83 82 80 77 70 68 72 72 67 64 61 61 63 62 60 57 55 52 55
177 167 161 154 152 149 145 142 139 135 132 133 135 134 131 126 120 115 110 105 99 95 91 88 88 85 84 81 76 78 78 74 71 66 66 66 67 67 62 60 58 55
190 184 176 164 160 157 153 149 144 139 136 136 138 138 138 136 130 125 120 115 108 103 97 93 92 88 88 88 83 83 83 79 75 72 72 70 69 71 67 65 63 60
200 195 185 172 166 163 162 157 149 145 144 142 143 143 142 141 137 133 129 126 119 113 106 100 97 94 93 92 90 89 87 84 80 77 75 74 74 75 71 71 69 67
205 201 192 180 170 168 173 169 157 153 152 150 150 146 144 145 144 140 137 134 129 123 117 110 106 103 99 97 97 97 95 92 88 84 82 79 78 77 75 76 75 71
207 205 193 179 173 174 182 181 166 158 155 156 159 153 147 148 148 145 142 138 136 133 128 122 116 112 109 105 104 104 103 102 100 98 93 89 86 83 81 80 79 77
207 203 190 178 177 180 183 180 171 163 159 161 169 165 155 151 149 148 145 140 140 138 135 132 128 124 122 117 114 111 108 106 106 104 99 98 99 95 91 87 84 85
203 198 189 181 180 182 185 180 173 171 168 167 171 169 161 155 152 149 146 144 143 141 141 139 135 134 132 130 127 122 118 112 110 108 104 105 108 106 103 99 91 92
197 195 189 184 182 185 186 183 179 177 175 172 170 165 160 159 157 153 151 149 147 145 144 142 140 141 140 140 139 136 132 128 122 121 117 116 121 118 115 112 108 107
193 191 188 187 188 189 188 186 186 185 182 177 171 165 163 163 162 160 159 156 153 152 149 147 147 147 147 148 149 146 143 138 137 139 137 134 132 131 135 138 140 140
192 188 188 189 190 193 191 190 191 192 190 185 177 172 170 170 169 170 169 166 165 162 158 157 158 158 159 162 162 160 155 149 151 157 161 163 165 173 181 176 176 188
190 184 185 190 195 200 200 197 197 198 197 191 186 182 178 179 181 180 181 183 181 176 174 172 170 170 174 177 178 175 170 165 166 176 190 194 196 205 208 205 207 210
198 192 187 190 197 203 206 206 204 205 204 198 194 191 188 190 192 190 191 192 189 186 183 179 177 182 188 192 194 192 188 186 187 198 214 220 221 225 224 223 224 219
204 206 205 204 205 210 217 222 221 216 212 206 198 195 196 197 195 194 194 192 190 190 188 185 186 192 197 200 205 207 205 204 208 215 222 224 226 230 230 229 230 226
203 208 213 210 209 212 219 228 229 221 212 205 198 195 198 197 195 198 201 200 197 195 195 195 192 192 197 201 206 211 213 211 213 217 220 221 224 227 226 229 233 231
194 201 207 205 202 205 211 219 221 214 205 201 200 203 208 209 206 205 208 212 209 201 199 199 197 202 212 217 215 214 214 209 206 208 208 211 218 224 226 229 234 231
175 186 198 202 201 200 203 210 212 207 202 202 203 208 211 210 209 207 209 215 213 208 206 203 206 220 231 233 227 225 222 213 206 205 205 207 213 223 228 228 229 227
164 181 194 201 204 205 203 205 208 206 205 204 203 207 206 203 203 202 205 210 213 215 213 208 217 232 237 233 230 232 225 211 205 203 198 199 203 212 220 221 222 222
178 195 207 211 216 218 212 210 213 213 210 204 200 202 201 201 207 209 211 215 219 220 212 203 211 218 218 213 213 217 208 192 190 193 189 195 202 205 217 220 222 231
142 163 192 209 215 211 207 210 213 211 206 200 199 206 207 209 217 219 216 210 199 188 173 165 174 170 165 173 179 179 177 174 176 184 189 198 202 201 212 217 220 247
104 122 146 168 186 191 197 206 206 206 208 205 208 216 218 217 219 209 194 176 159 151 149 149 150 144 143 152 156 158 165 169 175 189 196 196 193 189 194 203 210 240
76 102 138 164 182 189 195 199 197 200 206 204 203 206 203 198 193 180 167 157 150 151 154 154 152 150 150 155 158 162 169 173 185 198 203 201 199 191 187 195 194 194
46 70 151 180 193 195 196 194 191 192 193 190 188 187 181 176 172 166 158 154 152 152 150 145 144 149 156 163 172 178 178 185 201 205 201 202 198 182 173 191 199 200
16 17 344 210 206 197 188 185 186 184 182 180 178 175 171 167 164 160 157 156 155 152 146 138 131 128 129 136 154 170 177 185 195 191 185 190 180 158 145 169 198 204
337 339 337 296 243 219 194 187 185 182 178 177 178 176 173 171 168 166 163 159 156 152 148 142 134 131 128 128 135 145 153 165 180 172 169 180 178 156 135 134 163 191
326 321 323 315 306 302 264 223 206 195 185 183 186 187 183 178 176 173 168 164 164 160 157 153 148 143 137 134 135 133 133 148 178 178 168 175 179 166 150 137 132 141
Height
822 823 825 826 827 828 828 829 831 832 834 836 837 839 839 839 839 839 839 840 841 842 842 843 843 844 844 844 845 845 845 845 845 845 844 844 844 844 844 844 844 844
822 823 824 826 827 827 828 829 830 832 834 836 837 839 840 840 840 840 841 841 842 842 843 844 844 845 845 846 846 846 846 846 846 846 846 845 845 845 845 845 845 845
821 822 824 825 826 827 828 828 829 831 834 835 837 839 839 840 841 841 842 842 843 844 844 845 845 846 846 846 847 847 847 847 847 847 847 847 847 847 847 847 847 847
821 822 823 824 826 828 829 828 829 831 833 835 837 838 839 840 841 842 842 843 844 844 845 846 846 847 847 847 847 848 848 848 849 849 849 849 849 848 848 848 848 848
820 821 822 824 826 828 829 830 829 830 832 834 835 837 838 840 841 842 842 843 844 845 846 846 847 847 848 848 848 849 849 849 849 850 850 850 850 850 850 850 850 850
819 820 822 824 826 828 830 831 830 830 831 833 835 836 837 839 840 841 842 843 844 845 846 847 847 848 848 849 849 849 850 850 850 850 851 851 851 852 852 852 851 851
819 820 822 824 825 827 829 830 830 830 831 833 835 837 837 838 839 840 841 842 843 845 846 847 847 848 849 849 850 850 850 851 851 851 851 852 852 852 852 853 853 853
819 820 822 824 825 827 828 829 830 830 831 833 834 836 837 838 839 839 840 841 842 844 845 846 847 848 848 849 849 850 850 851 851 852 852 852 852 852 853 853 854 854
819 820 821 823 824 826 827 828 830 830 831 832 834 835 836 838 838 839 839 840 841 843 844 845 846 847 848 848 849 849 850 850 851 852 852 852 853 853 853 853 854 854
818 819 820 822 823 825 826 827 829 830 831 832 833 834 836 837 838 838 839 840 840 841 842 844 845 846 847 848 848 849 849 850 851 851 852 852 853 853 853 854 854 854
817 818 819 820 822 824 825 826 827 829 831 832 833 834 835 836 837 838 838 839 840 840 841 842 843 844 846 846 847 848 848 849 850 850 851 852 852 853 853 853 854 854
816 817 818 820 821 823 824 825 826 828 830 831 832 833 834 835 836 837 837 838 839 839 840 841 842 843 844 845 846 847 847 848 849 849 850 851 851 852 852 853 853 854
815 817 818 819 821 823 824 825 826 828 829 830 831 832 833 834 835 836 836 837 837 838 838 839 840 842 843 844 845 845 846 846 847 848 849 850 850 851 851 852 852 853
815 816 817 819 821 823 824 825 826 827 828 829 830 831 832 833 834 835 835 835 836 837 837 838 839 840 841 842 843 843 844 844 845 847 847 848 849 849 850 850 851 852
815 816 817 818 820 821 823 824 825 826 827 828 829 830 831 832 833 833 834 834 834 835 836 837 837 838 839 840 841 841 842 842 843 845 845 846 847 848 848 849 849 850
815 816 816 818 819 819 821 823 824 825 826 827 827 829 830 831 831 832 832 833 833 834 834 835 836 836 837 838 838 839 840 840 841 843 843 844 845 846 847 847 848 849
815 816 817 818 818 819 820 821 823 823 824 825 826 828 829 830 830 830 831 832 832 833 833 833 834 834 834 835 836 836 837 838 840 841 841 842 843 844 845 845 846 847
816 816 817 818 818 819 819 820 821 821 823 824 825 826 828 828 829 829 830 830 831 832 832 832 833 832 833 834 834 834 836 837 838 839 840 841 841 842 843 844 844 845
816 816 817 817 817 818 819 819 820 820 822 823 823 825 826 827 828 828 829 829 830 831 831 831 832 831 832 833 833 834 835 835 837 838 838 839 840 841 842 842 843 844
816 816 817 817 817 818 818 819 820 820 821 822 823 824 824 824 825 826 827 828 829 830 831 831 831 831 832 832 833 833 834 835 836 837 837 838 839 840 841 842 842 843
816 816 817 817 817 818 818 818 819 820 820 821 822 823 823 823 824 826 827 828 828 828 830 831 832 831 832 832 832 833 834 834 835 836 837 838 838 839 840 841 842 842
817 817 817 817 817 818 818 818 818 819 819 820 820 822 822 822 825 826 827 827 827 828 829 830 831 831 831 832 832 833 833 834 835 836 836 837 838 839 840 840 841 842
817 817 817 817 817 817 817 817 818 818 818 818 819 821 821 821 824 825 826 826 827 828 828 829 830 830 831 831 831 832 833 834 835 835 836 837 837 838 839 839 840 840
818 817 817 817 817 816 816 817 817 817 818 818 819 820 820 821 822 824 825 825 826 827 828 828 829 829 830 830 831 831 832 833 834 834 835 836 837 837 838 838 838 840
818 818 818 817 817 816 816 816 816 817 817 818 818 819 820 821 822 822 823 824 825 826 826 827 828 829 829 830 830 831 831 832 832 833 834 835 836 837 838 838 838 839
818 818 818 817 817 817 817 817 817 817 817 817 817 818 819 820 821 821 822 823 823 824 825 826 827 828 828 829 829 830 830 831 831 832 833 834 835 836 837 838 838 839